FW5198 Weather Reports


Display with metric or nautical units.
time (UTC)temp
F
wind
direction
speed
MPH
gust
MPH
rain 1hr
in
rain 24hr
in
rain mn
in
humidity
%
barometer
mb
20260903040050 77 0 0.0 0.0 0.00 0.00 0.00 93 1017.4
20260903034546 77 0 0.0 0.0 0.00 0.00 0.00 93 1017.4
20260903033052 77 0 0.0 0.0 0.00 0.00 0.00 93 1017.5
20260903031544 78 0 0.0 1.0 0.00 0.00 0.00 92 1017.5
20260903030052 78 0 0.0 1.0 0.00 0.00 0.00 92 1017.5
20260903024548 79 0 0.0 1.0 0.00 0.00 0.00 92 1017.4
20260903023052 79 0 0.0 1.0 0.00 0.00 0.00 92 1017.5
20260903021603 79 0 0.0 1.0 0.00 0.00 0.00 91 1017.5
20260903020052 80 0 0.0 1.0 0.00 0.00 0.00 90 1017.3
20260903014549 80 0 0.0 1.0 0.00 0.00 0.00 89 1017.2
20260903013045 81 0 0.0 1.0 0.00 0.00 0.00 89 1017.2
20260903011551 81 0 0.0 1.0 0.00 0.00 0.00 87 1016.9
20260903010107 82 42 0.0 1.0 0.00 0.00 0.00 85 1017.0
20260903004556 83 0 0.0 1.0 0.00 0.00 0.00 83 1016.9
20260903003045 84 0 0.0 1.0 0.00 0.00 0.00 80 1017.0
20260903001553 85 0 0.0 1.0 0.00 0.00 0.00 78 1017.0
20260903000053 86 0 0.0 1.0 0.00 0.00 0.00 77 1017.1
20260902234547 89 42 0.0 1.0 0.00 0.00 0.00 75 1017.1
20260902233046 91 42 0.0 1.0 0.00 0.00 0.00 71 1017.1
20260902231550 93 42 0.0 1.0 0.00 0.00 0.00 65 1017.1
20260902230049 94 41 1.0 2.0 0.00 0.00 0.00 57 1017.2
20260902224547 95 43 1.0 3.0 0.00 0.00 0.00 54 1017.1
20260902223054 95 51 1.0 3.0 0.00 0.00 0.00 51 1017.2
20260902221600 94 32 3.0 4.0 0.00 0.00 0.00 52 1017.3
20260902220055 95 61 1.0 4.0 0.00 0.00 0.00 51 1017.4
20260902214546 95 79 1.0 5.0 0.00 0.00 0.00 50 1017.4
20260902213053 95 50 2.0 5.0 0.00 0.00 0.00 49 1017.4
20260902211600 95 0 3.0 6.0 0.00 0.00 0.00 50 1017.5
20260902210052 95 99 2.0 6.0 0.00 0.00 0.00 49 1017.6
20260902204559 95 45 4.0 7.0 0.00 0.00 0.00 50 1017.7
20260902203048 95 34 3.0 6.0 0.00 0.00 0.00 51 1017.8
20260902201604 95 87 1.0 6.0 0.00 0.00 0.00 51 1018.0
20260902200052 96 357 3.0 8.0 0.00 0.00 0.00 51 1018.2
20260902194545 96 41 1.0 7.0 0.00 0.00 0.00 53 1018.4
20260902193049 95 39 3.0 6.0 0.00 0.00 0.00 51 1018.5
20260902191549 95 27 2.0 7.0 0.00 0.00 0.00 50 1018.7
20260902190053 96 40 4.0 8.0 0.00 0.00 0.00 50 1018.9
20260902184605 95 348 3.0 7.0 0.00 0.00 0.00 51 1019.0
20260902183051 95 20 2.0 4.0 0.00 0.00 0.00 52 1019.1
20260902181554 95 25 2.0 6.0 0.00 0.00 0.00 53 1019.1
20260902180100 94 30 2.0 6.0 0.00 0.00 0.00 54 1019.2
20260902174550 95 160 0.0 4.0 0.00 0.00 0.00 55 1019.5
20260902173046 94 39 2.0 6.0 0.00 0.00 0.00 53 1019.6
20260902171556 93 23 4.0 6.0 0.00 0.00 0.00 55 1019.8
20260902170045 93 31 1.0 6.0 0.00 0.00 0.00 56 1019.9
20260902164558 92 23 2.0 6.0 0.00 0.00 0.00 59 1020.3
20260902163049 92 49 1.0 7.0 0.00 0.00 0.00 59 1020.4
20260902161558 91 52 1.0 6.0 0.00 0.00 0.00 61 1020.7
20260902160049 91 23 2.0 6.0 0.00 0.00 0.00 61 1020.7
20260902154607 91 30 1.0 5.0 0.00 0.00 0.00 60 1020.7
20260902153047 90 347 2.0 5.0 0.00 0.00 0.00 62 1020.9
20260902151555 89 0 2.0 5.0 0.00 0.00 0.00 63 1020.7
20260902150047 89 64 2.0 4.0 0.00 0.00 0.00 67 1020.7
20260902144549 87 3 0.0 3.0 0.00 0.00 0.00 70 1020.6
20260902143045 87 35 1.0 4.0 0.00 0.00 0.00 71 1020.6
20260902141549 85 0 0.0 3.0 0.00 0.00 0.00 73 1020.5
20260902140045 83 30 2.0 3.0 0.00 0.00 0.00 76 1020.6
20260902134546 82 49 0.0 2.0 0.00 0.00 0.00 78 1020.5
20260902133059 80 0 0.0 1.0 0.00 0.00 0.00 81 1020.4
20260902131547 78 0 0.0 1.0 0.00 0.00 0.00 85 1020.4
20260902130045 75 0 0.0 0.0 0.00 0.00 0.00 92 1020.4
20260902124553 74 0 0.0 0.0 0.00 0.00 0.00 95 1020.3
20260902123048 73 0 0.0 0.0 0.00 0.00 0.00 96 1020.2
20260902121546 72 0 0.0 0.0 0.00 0.00 0.00 96 1020.2
20260902120052 71 0 0.0 0.0 0.00 0.00 0.00 97 1020.0
20260902114547 71 0 0.0 0.0 0.00 0.00 0.00 97 1019.9
20260902113046 71 0 0.0 0.0 0.00 0.00 0.00 97 1019.8
20260902111557 71 0 0.0 0.0 0.00 0.00 0.00 97 1019.6
20260902110047 71 0 0.0 0.0 0.00 0.00 0.00 97 1019.4
20260902104548 71 0 0.0 0.0 0.00 0.00 0.00 97 1019.4
20260902103047 71 0 0.0 0.0 0.00 0.00 0.00 97 1019.2
20260902101555 71 0 0.0 0.0 0.00 0.00 0.00 97 1019.2
20260902100045 71 0 0.0 0.0 0.00 0.00 0.00 97 1018.9
20260902094546 71 0 0.0 0.0 0.00 0.00 0.00 97 1018.8
20260902093116 71 0 0.0 0.0 0.00 0.00 0.00 96 1018.7
20260902091553 71 0 0.0 0.0 0.00 0.00 0.00 96 1018.6
20260902090054 71 0 0.0 0.0 0.00 0.00 0.00 96 1018.5
20260902084554 72 0 0.0 0.0 0.00 0.00 0.00 96 1018.6
20260902083054 72 0 0.0 0.0 0.00 0.00 0.00 96 1018.5
20260902081608 72 0 0.0 0.0 0.00 0.00 0.00 96 1018.2
20260902080047 72 0 0.0 0.0 0.00 0.00 0.00 95 1018.2
20260902074545 72 0 0.0 0.0 0.00 0.00 0.00 95 1018.1
20260902073051 73 0 0.0 0.0 0.00 0.00 0.00 95 1018.2
20260902071559 73 0 0.0 0.0 0.00 0.00 0.00 95 1018.2
20260902070050 73 0 0.0 0.0 0.00 0.00 0.00 95 1018.2
20260902064548 73 0 0.0 0.0 0.00 0.00 0.00 95 1018.3
20260902063051 73 0 0.0 0.0 0.00 0.00 0.00 95 1018.3
20260902061550 73 0 0.0 0.0 0.00 0.00 0.00 94 1018.4
20260902060109 74 0 0.0 0.0 0.00 0.00 0.00 94 1018.2
20260902054550 74 0 0.0 0.0 0.00 0.00 0.00 94 1018.3
20260902053049 74 0 0.0 0.0 0.00 0.00 0.00 94 1018.3
20260902051546 74 0 0.0 0.0 0.00 0.00 0.00 93 1018.3
20260902050108 74 0 0.0 0.0 0.00 0.00 0.00 93 1018.3
20260902044606 75 0 0.0 0.0 0.00 0.00 0.00 93 1018.3
20260902043046 75 0 0.0 0.0 0.00 0.00 0.00 94 1018.3
20260902041544 75 0 0.0 1.0 0.00 0.00 0.00 93 1018.3